When you browse on this site, cookies collect data to enhance your experience and personalize the content and advertising you see.
Visit our Privacy Policy to learn more. By continuing to use the site, you agree to this use of cookies and data.
  • In United Kingdom
  • List of Countries
  • For 7 days
  • Water Temperature
  • Satellite Maps
  • Weather Map
  • Weather Widgets
  • user-avatar
    Login

    Hourly Weather Jurmala

    Today, 26 April, Friday

    Time Temperature Precipitation Wind Pressure Humidity
    00:00 +15°C° 0.3 mm 2 mps 763 mmHg 79%
    01:00 +14°C° 0.3 mm 2 mps 762 mmHg 82%
    02:00 +13°C° 0 mm 2 mps 763 mmHg 81%
    03:00 +13°C° 0 mm 2 mps 762 mmHg 83%
    04:00 +13°C° 0 mm 2 mps 762 mmHg 85%
    05:00 +12°C° 0 mm 2 mps 762 mmHg 87%
    06:00 +12°C° 0 mm 3 mps 762 mmHg 82%
    07:00 +14°C° 0 mm 3 mps 762 mmHg 78%
    08:00 +16°C° 0 mm 3 mps 762 mmHg 73%
    09:00 +18°C° 0 mm 3 mps 761 mmHg 67%
    10:00 +20°C° 0 mm 2 mps 761 mmHg 61%
    11:00 +23°C° 0 mm 2 mps 761 mmHg 54%
    12:00 +23°C° 0.1 mm 2 mps 761 mmHg 51%
    13:00 +24°C° 0.1 mm 2 mps 760 mmHg 49%
    14:00 +25°C° 0.1 mm 2 mps 760 mmHg 46%
    15:00 +25°C° 1.3 mm 2 mps 760 mmHg 47%
    16:00 +25°C° 1.3 mm 2 mps 759 mmHg 48%
    17:00 +25°C° 1.3 mm 1 mps 759 mmHg 49%
    18:00 +23°C° 0.8 mm 2 mps 759 mmHg 55%
    19:00 +20°C° 0.8 mm 2 mps 759 mmHg 62%
    20:00 +18°C° 0.8 mm 2 mps 759 mmHg 68%
    21:00 +18°C° 0 mm 2 mps 759 mmHg 70%
    22:00 +17°C° 0 mm 2 mps 758 mmHg 72%
    23:00 +16°C° 0 mm 2 mps 758 mmHg 74%

    Tomorrow, 27 April, Saturday

    Time Temperature Precipitation Wind Pressure Humidity
    00:00 +16°C° 0 mm 2 mps 758 mmHg 76%
    01:00 +15°C° 0 mm 2 mps 758 mmHg 78%
    02:00 +14°C° 0 mm 2 mps 758 mmHg 79%
    03:00 +14°C° 0 mm 2 mps 758 mmHg 81%
    04:00 +14°C° 0 mm 2 mps 758 mmHg 83%
    05:00 +13°C° 0 mm 2 mps 757 mmHg 85%
    06:00 +15°C° 0 mm 2 mps 757 mmHg 79%
    07:00 +16°C° 0 mm 1 mps 757 mmHg 74%
    08:00 +19°C° 0 mm 1 mps 757 mmHg 68%
    09:00 +19°C° 0 mm 2 mps 757 mmHg 62%
    10:00 +21°C° 0 mm 2 mps 757 mmHg 55%
    11:00 +24°C° 0 mm 2 mps 756 mmHg 49%
    12:00 +25°C° 0 mm 2 mps 756 mmHg 46%
    13:00 +25°C° 0 mm 2 mps 756 mmHg 44%
    14:00 +26°C° 0 mm 3 mps 756 mmHg 41%
    15:00 +25°C° 0 mm 3 mps 756 mmHg 45%
    16:00 +23°C° 0 mm 4 mps 756 mmHg 48%
    17:00 +22°C° 0 mm 5 mps 756 mmHg 51%
    18:00 +20°C° 0 mm 5 mps 756 mmHg 56%
    19:00 +19°C° 0 mm 4 mps 756 mmHg 60%
    20:00 +17°C° 0 mm 4 mps 756 mmHg 65%
    21:00 +17°C° 0 mm 4 mps 756 mmHg 66%
    22:00 +17°C° 0 mm 4 mps 756 mmHg 68%
    23:00 +17°C° 0 mm 4 mps 756 mmHg 69%

    Day after tomorrow, 28 April, Sunday

    Time Temperature Precipitation Wind Pressure Humidity
    00:00 +15°C° 0 mm 4 mps 757 mmHg 71%
    01:00 +15°C° 0 mm 4 mps 757 mmHg 72%
    02:00 +14°C° 0 mm 4 mps 757 mmHg 74%
    03:00 +14°C° 0 mm 4 mps 757 mmHg 76%
    04:00 +13°C° 0 mm 4 mps 758 mmHg 79%
    05:00 +13°C° 0 mm 4 mps 758 mmHg 81%
    06:00 +13°C° 0 mm 4 mps 758 mmHg 76%
    07:00 +14°C° 0 mm 4 mps 759 mmHg 71%
    08:00 +15°C° 0 mm 5 mps 760 mmHg 66%
    09:00 +16°C° 0 mm 5 mps 760 mmHg 62%
    10:00 +17°C° 0 mm 5 mps 760 mmHg 58%
    11:00 +19°C° 0 mm 5 mps 760 mmHg 53%
    12:00 +20°C° 0 mm 5 mps 761 mmHg 51%
    13:00 +21°C° 0 mm 5 mps 761 mmHg 48%
    14:00 +22°C° 0 mm 5 mps 761 mmHg 45%
    15:00 +21°C° 0 mm 5 mps 761 mmHg 45%
    16:00 +20°C° 0 mm 5 mps 761 mmHg 44%
    17:00 +20°C° 0 mm 6 mps 762 mmHg 44%
    18:00 +17°C° 0 mm 5 mps 762 mmHg 45%
    19:00 +15°C° 0 mm 5 mps 763 mmHg 46%
    20:00 +14°C° 0 mm 5 mps 763 mmHg 47%
    21:00 +13°C° 0 mm 5 mps 764 mmHg 46%
    22:00 +10°C° 0 mm 5 mps 765 mmHg 46%
    23:00 +9°C° 0 mm 5 mps 765 mmHg 45%

    29 April, Monday

    Time Temperature Precipitation Wind Pressure Humidity
    00:00 +8°C° 0 mm 4 mps 766 mmHg 47%
    01:00 +7°C° 0 mm 4 mps 766 mmHg 48%
    02:00 +7°C° 0 mm 4 mps 766 mmHg 49%
    03:00 +6°C° 0 mm 4 mps 766 mmHg 51%
    04:00 +5°C° 0 mm 4 mps 766 mmHg 53%
    05:00 +5°C° 0 mm 4 mps 767 mmHg 55%
    06:00 +6°C° 0 mm 4 mps 767 mmHg 52%
    07:00 +7°C° 0 mm 4 mps 767 mmHg 48%
    08:00 +8°C° 0 mm 4 mps 767 mmHg 45%
    09:00 +10°C° 0 mm 4 mps 767 mmHg 41%
    10:00 +12°C° 0 mm 4 mps 767 mmHg 36%
    11:00 +13°C° 0 mm 4 mps 767 mmHg 31%
    12:00 +14°C° 0 mm 4 mps 767 mmHg 30%
    13:00 +14°C° 0 mm 4 mps 766 mmHg 30%
    14:00 +15°C° 0 mm 4 mps 766 mmHg 29%
    15:00 +14°C° 0 mm 4 mps 766 mmHg 31%
    16:00 +14°C° 0 mm 4 mps 766 mmHg 32%
    17:00 +14°C° 0 mm 5 mps 765 mmHg 34%
    18:00 +12°C° 0 mm 4 mps 766 mmHg 39%
    19:00 +11°C° 0 mm 4 mps 766 mmHg 43%
    20:00 +8°C° 0 mm 4 mps 766 mmHg 48%
    21:00 +9°C° 0 mm 3 mps 766 mmHg 51%
    22:00 +8°C° 0 mm 3 mps 766 mmHg 53%
    23:00 +7°C° 0 mm 3 mps 766 mmHg 56%

    30 April, Tuesday

    Time Temperature Precipitation Wind Pressure Humidity
    00:00 +7°C° 0 mm 2 mps 766 mmHg 57%
    01:00 +6°C° 0 mm 2 mps 766 mmHg 58%
    02:00 +6°C° 0 mm 2 mps 766 mmHg 59%
    03:00 +6°C° 0 mm 1 mps 766 mmHg 60%
    04:00 +6°C° 0 mm 1 mps 765 mmHg 61%
    05:00 +6°C° 0 mm 1 mps 765 mmHg 62%
    06:00 +7°C° 0 mm 1 mps 765 mmHg 57%
    07:00 +8°C° 0 mm 2 mps 765 mmHg 52%
    08:00 +9°C° 0 mm 2 mps 765 mmHg 47%
    09:00 +10°C° 0 mm 3 mps 765 mmHg 44%
    10:00 +12°C° 0 mm 3 mps 764 mmHg 40%
    11:00 +13°C° 0 mm 3 mps 764 mmHg 36%
    12:00 +13°C° 0 mm 4 mps 764 mmHg 35%
    13:00 +13°C° 0 mm 4 mps 763 mmHg 34%
    14:00 +13°C° 0 mm 5 mps 763 mmHg 33%
    15:00 +13°C° 0 mm 5 mps 763 mmHg 35%
    16:00 +12°C° 0 mm 5 mps 762 mmHg 36%
    17:00 +12°C° 0 mm 5 mps 762 mmHg 38%
    18:00 +10°C° 0 mm 4 mps 762 mmHg 44%
    19:00 +8°C° 0 mm 4 mps 762 mmHg 50%
    20:00 +7°C° 0 mm 4 mps 762 mmHg 56%
    21:00 +7°C° 0 mm 3 mps 762 mmHg 60%
    22:00 +7°C° 0 mm 3 mps 762 mmHg 64%
    23:00 +5°C° 0 mm 3 mps 763 mmHg 67%

    1 May, Wednesday

    Time Temperature Precipitation Wind Pressure Humidity
    00:00 +6°C° 0 mm 2 mps 762 mmHg 71%
    01:00 +6°C° 0 mm 2 mps 762 mmHg 75%
    02:00 +6°C° 0 mm 1 mps 762 mmHg 78%
    03:00 +6°C° 0 mm 1 mps 762 mmHg 80%
    04:00 +6°C° 0 mm 1 mps 761 mmHg 82%
    05:00 +6°C° 0 mm 1 mps 761 mmHg 84%
    06:00 +7°C° 0 mm 1 mps 761 mmHg 76%
    07:00 +9°C° 0 mm 1 mps 761 mmHg 69%
    08:00 +11°C° 0 mm 1 mps 760 mmHg 61%
    09:00 +13°C° 0 mm 1 mps 760 mmHg 54%
    10:00 +15°C° 0 mm 1 mps 760 mmHg 47%
    11:00 +18°C° 0 mm 1 mps 760 mmHg 40%
    12:00 +18°C° 0 mm 1 mps 759 mmHg 38%
    13:00 +19°C° 0 mm 1 mps 759 mmHg 36%
    14:00 +19°C° 0 mm 1 mps 758 mmHg 33%
    15:00 +18°C° 0 mm 2 mps 758 mmHg 35%
    16:00 +17°C° 0 mm 2 mps 757 mmHg 37%
    17:00 +17°C° 0 mm 2 mps 757 mmHg 39%
    18:00 +15°C° 0 mm 2 mps 756 mmHg 45%
    19:00 +13°C° 0 mm 2 mps 756 mmHg 51%
    20:00 +10°C° 0 mm 2 mps 756 mmHg 57%
    21:00 +9°C° 0 mm 2 mps 755 mmHg 59%
    22:00 +8°C° 0 mm 2 mps 755 mmHg 62%
    23:00 +7°C° 0 mm 2 mps 755 mmHg 65%
    Show more